General Edward Lawrence Logan International Airport Boston US
ICAO: KBOS
IATA: BOS
Category: Large
Scheduled Services: Yes

Elevation: 20 ft
TransAlt. 18000 ft.

Airport Communications:
BOSTON APP:118.25
ATIS:135
CLNC DEL:121.65
BOSTON DEP:133
GND:121.9
GATE:134.05
BRIDGEPORT RDO:122.4
BOSTON TWR:124.725
UNICOM:122.95

KBOS Zoom In..

Runways:

(A) RW 04L length 7861 ft width 150 ft
---- / hdg 36

(B) RW 04R length 10005 ft width 150 ft
ILS 110.30 / hdg 36

(C) RW 09 length 7000 ft width 150 ft
---- / hdg 93

(D) RW 14 length 5000 ft width 100 ft
---- / hdg 141

(E) RW 15L length 2557 ft width 100 ft
---- / hdg 151

(F) RW 15R length 10083 ft width 150 ft
ILS 110.70 / hdg 151

(G) RW 22L length 10005 ft width 150 ft
ILS 110.30 / hdg 216

(H) RW 22R length 7861 ft width 150 ft
---- / hdg 216

(I) RW 27 length 7000 ft width 150 ft
ILS 111.30 / hdg 273

(J) RW 32 length 5000 ft width 100 ft
---- / hdg 321

(K) RW 33L length 10083 ft width 150 ft
ILS 110.70 / hdg 331

(L) RW 33R length 2557 ft width 100 ft
---- / hdg 331

Location; KBOS
Day. 22 / Time. 00.54 Zulu
* Altimeter: 30.26
* Temperature: 11° c. 51.8°f.
* Wind from: 360° Speed 06 kn.
Dewpoint: -05° c.
Visibility: 10 Statute Miles.
Clouds: Clear (automated report).

KBOS 220054Z 36006KT 10SM CLR 11/M05 A3026 RMK AO2 SLP246 T01111050


Wind From 360°
Speed 06 kn.

  YouTube Music Video
 
jpsmedia.com for Web Design  worldairports.se 2018   terms of use